Satellite: SO-50
Catalog number: 27607
Epoch time:      12060.69588529
Element set:    0701
Inclination:      064.5580 deg
RA of node:       264.8953 deg
Eccentricity:    0.0085162
Arg of perigee:   269.6965 deg
Mean anomaly:     089.4355 deg
Mean motion:   14.72228417 rev/day
Decay rate:       2.69e-06 rev/day^2
Epoch rev:           49399
Checksum:              359

Satellite: CO-55
Catalog number: 27844
Epoch time:      12060.55653617
Element set:    0321
Inclination:      098.7054 deg
RA of node:       070.5104 deg
Eccentricity:    0.0009599
Arg of perigee:   171.7752 deg
Mean anomaly:     188.3593 deg
Mean motion:   14.20967497 rev/day
Decay rate:       1.74e-06 rev/day^2
Epoch rev:           44946
Checksum:              335

Satellite: CO-57
Catalog number: 27848
Epoch time:      12060.54145164
Element set:    0270
Inclination:      098.7140 deg
RA of node:       069.7823 deg
Eccentricity:    0.0009375
Arg of perigee:   175.7139 deg
Mean anomaly:     184.4116 deg
Mean motion:   14.20726656 rev/day
Decay rate:       1.55e-06 rev/day^2
Epoch rev:           44940
Checksum:              316

Satellite: AO-51
Catalog number: 28375
Epoch time:      12060.47568902
Element set:    0208
Inclination:      098.1326 deg
RA of node:       030.8891 deg
Eccentricity:    0.0084556
Arg of perigee:   010.7862 deg
Mean anomaly:     349.5121 deg
Mean motion:   14.40900887 rev/day
Decay rate:       1.67e-06 rev/day^2
Epoch rev:           40311
Checksum:              300

Satellite: CP3
Catalog number: 31129
Epoch time:      12060.55298678
Element set:    0105
Inclination:      097.8885 deg
RA of node:       074.7236 deg
Eccentricity:    0.0102854
Arg of perigee:   100.9806 deg
Mean anomaly:     260.2992 deg
Mean motion:   14.52902702 rev/day
Decay rate:       4.71e-06 rev/day^2
Epoch rev:           25820
Checksum:              302

Satellite: CO-65
Catalog number: 32785
Epoch time:      12060.67114215
Element set:    0242
Inclination:      097.8144 deg
RA of node:       124.2437 deg
Eccentricity:    0.0015539
Arg of perigee:   059.1568 deg
Mean anomaly:     301.1180 deg
Mean motion:   14.82710110 rev/day
Decay rate:      1.077e-05 rev/day^2
Epoch rev:           20768
Checksum:              279

Satellite: PRISM
Catalog number: 33493
Epoch time:      12061.41670056
Element set:     472
Inclination:      098.1541 deg
RA of node:       199.5648 deg
Eccentricity:    0.0018167
Arg of perigee:   287.0134 deg
Mean anomaly:     072.9157 deg
Mean motion:   14.83258962 rev/day
Decay rate:      2.195e-05 rev/day^2
Epoch rev:           16777
Checksum:              324

Satellite: SOHLA-1
Catalog number: 33496
Epoch time:      12060.93918549
Element set:    0663
Inclination:      098.0934 deg
RA of node:       173.4692 deg
Eccentricity:    0.0007209
Arg of perigee:   032.2895 deg
Mean anomaly:     327.8752 deg
Mean motion:   14.69876304 rev/day
Decay rate:       3.37e-06 rev/day^2
Epoch rev:           16634
Checksum:              335

Satellite: SO-67
Catalog number: 35870
Epoch time:      12061.33017231
Element set:     729
Inclination:      097.2471 deg
RA of node:       100.8648 deg
Eccentricity:    0.0002141
Arg of perigee:   149.0078 deg
Mean anomaly:     339.7423 deg
Mean motion:   15.22875381 rev/day
Decay rate:      3.464e-05 rev/day^2
Epoch rev:           13619
Checksum:              297

Satellite: TISAT-1
Catalog number: 36799
Epoch time:      12061.36347174
Element set:     746
Inclination:      098.0713 deg
RA of node:       136.9059 deg
Eccentricity:    0.0015525
Arg of perigee:   157.7773 deg
Mean anomaly:     202.4117 deg
Mean motion:   14.81555498 rev/day
Decay rate:      1.363e-05 rev/day^2
Epoch rev:            8852
Checksum:              325

Satellite: STUDSAT
Catalog number: 36801
Epoch time:      12060.90363350
Element set:    0364
Inclination:      098.0784 deg
RA of node:       136.7406 deg
Eccentricity:    0.0013537
Arg of perigee:   146.7822 deg
Mean anomaly:     213.4252 deg
Mean motion:   14.83201799 rev/day
Decay rate:      3.148e-05 rev/day^2
Epoch rev:           08846
Checksum:              294

Satellite: FO-69
Catalog number: 37227
Epoch time:      12046.04422040
Element set:    0103
Inclination:      071.9672 deg
RA of node:       223.6606 deg
Eccentricity:    0.0017759
Arg of perigee:   195.0744 deg
Mean anomaly:     164.9889 deg
Mean motion:   14.76923927 rev/day
Decay rate:       3.30e-06 rev/day^2
Epoch rev:           01791
Checksum:              314

Satellite: FO-70
Catalog number: 37380
Epoch time:      12046.50349291
Element set:    0106
Inclination:      071.9705 deg
RA of node:       223.0530 deg
Eccentricity:    0.0018152
Arg of perigee:   191.1227 deg
Mean anomaly:     168.9536 deg
Mean motion:   14.76682035 rev/day
Decay rate:       3.31e-06 rev/day^2
Epoch rev:           01787
Checksum:              285

/EX
SB KEPS @ AMSAT  $ORB12061.W
Orbital Elements  12061.WEATHER

HR AMSAT ORBITAL ELEMENTS FOR WEATHER SATELLITES
FROM WA5QGD FORT WORTH,TX March 1, 2012
Send SUBSCRIBE KEPS/UNSUBSCRIBE KEPS to majordomo@amsat.org only
BID: ORB12061.W
TO ALL RADIO AMATEURS BT

